| time (UTC) | temp F | wind direction | speed MPH | gust MPH | rain 1hr in | rain 24hr in | rain mn in | humidity % | barometer mb |
| 20260831041652 | 59 | 40 | 0.0 | 4.0 | 0.00 | 0.00 | 0.00 | 78 | 1019.4 |
| 20260831040153 | 59 | 26 | 1.0 | 3.0 | 0.00 | 0.00 | 0.00 | 78 | 1019.3 |
| 20260831034651 | 60 | 49 | 1.0 | 2.0 | 0.00 | 0.00 | 0.00 | 77 | 1019.3 |
| 20260831033143 | 60 | 49 | 0.0 | 3.0 | 0.00 | 0.00 | 0.00 | 78 | 1019.2 |
| 20260831031651 | 60 | 49 | 0.0 | 0.0 | 0.00 | 0.00 | 0.00 | 77 | 1019.2 |
| 20260831030154 | 60 | 49 | 0.0 | 4.0 | 0.00 | 0.00 | 0.00 | 76 | 1019.3 |
| 20260831024651 | 61 | 36 | 1.0 | 3.0 | 0.00 | 0.00 | 0.00 | 75 | 1019.2 |
| 20260831023141 | 61 | 17 | 0.0 | 2.0 | 0.00 | 0.00 | 0.00 | 74 | 1019.1 |
| 20260831021651 | 62 | 17 | 0.0 | 2.0 | 0.00 | 0.00 | 0.00 | 72 | 1019.1 |
| 20260831020150 | 62 | 17 | 0.0 | 0.0 | 0.00 | 0.00 | 0.00 | 72 | 1019.1 |
| 20260831014651 | 62 | 17 | 0.0 | 2.0 | 0.00 | 0.00 | 0.00 | 72 | 1019.0 |
| 20260831013139 | 63 | 17 | 0.0 | 4.0 | 0.00 | 0.00 | 0.00 | 72 | 1018.9 |
| 20260831011652 | 63 | 24 | 0.0 | 3.0 | 0.00 | 0.00 | 0.00 | 70 | 1018.8 |
| 20260831010151 | 64 | 23 | 0.0 | 1.0 | 0.00 | 0.00 | 0.00 | 69 | 1018.8 |
| 20260831004653 | 64 | 23 | 0.0 | 1.0 | 0.00 | 0.00 | 0.00 | 68 | 1018.8 |
| 20260831003144 | 65 | 23 | 0.0 | 3.0 | 0.00 | 0.00 | 0.00 | 67 | 1018.7 |
| 20260831001652 | 65 | 49 | 2.0 | 5.0 | 0.00 | 0.00 | 0.00 | 67 | 1018.6 |
| 20260831000155 | 66 | 46 | 1.0 | 4.0 | 0.00 | 0.00 | 0.00 | 65 | 1018.7 |
| 20260830234656 | 66 | 82 | 2.0 | 5.0 | 0.00 | 0.00 | 0.00 | 65 | 1018.7 |
| 20260830233147 | 67 | 35 | 2.0 | 4.0 | 0.00 | 0.00 | 0.00 | 64 | 1018.7 |
| 20260830231653 | 67 | 49 | 0.0 | 0.0 | 0.00 | 0.00 | 0.00 | 63 | 1018.7 |
| 20260830230154 | 67 | 26 | 1.0 | 4.0 | 0.00 | 0.00 | 0.00 | 63 | 1018.7 |
| 20260830224650 | 67 | 42 | 2.0 | 4.0 | 0.00 | 0.00 | 0.00 | 62 | 1018.5 |
| 20260830223141 | 68 | 15 | 2.0 | 4.0 | 0.00 | 0.00 | 0.00 | 61 | 1018.5 |
| 20260830221653 | 68 | 48 | 0.0 | 3.0 | 0.00 | 0.00 | 0.00 | 60 | 1018.4 |
| 20260830220154 | 69 | 53 | 0.0 | 4.0 | 0.00 | 0.00 | 0.00 | 59 | 1018.3 |
| 20260830214650 | 69 | 46 | 1.0 | 4.0 | 0.00 | 0.00 | 0.00 | 59 | 1018.1 |
| 20260830213139 | 70 | 46 | 0.0 | 1.0 | 0.00 | 0.00 | 0.00 | 56 | 1017.9 |
| 20260830211652 | 70 | 45 | 2.0 | 5.0 | 0.00 | 0.00 | 0.00 | 55 | 1017.8 |
| 20260830210151 | 71 | 49 | 2.0 | 4.0 | 0.00 | 0.00 | 0.00 | 54 | 1017.8 |
| 20260830204653 | 72 | 58 | 2.0 | 5.0 | 0.00 | 0.00 | 0.00 | 52 | 1017.7 |
| 20260830203139 | 74 | 50 | 0.0 | 0.0 | 0.00 | 0.00 | 0.00 | 49 | 1017.4 |
| 20260830201650 | 76 | 50 | 0.0 | 0.0 | 0.00 | 0.00 | 0.00 | 47 | 1017.3 |
| 20260830200156 | 76 | 50 | 0.0 | 0.0 | 0.00 | 0.00 | 0.00 | 44 | 1017.2 |
| 20260830194653 | 77 | 290 | 1.0 | 3.0 | 0.00 | 0.00 | 0.00 | 42 | 1017.0 |
| 20260830193142 | 78 | 295 | 0.0 | 4.0 | 0.00 | 0.00 | 0.00 | 40 | 1016.8 |
| 20260830191654 | 79 | 306 | 0.0 | 7.0 | 0.00 | 0.00 | 0.00 | 39 | 1016.6 |
| 20260830184653 | 82 | 100 | 1.0 | 6.0 | 0.00 | 0.00 | 0.00 | 36 | 1016.1 |
| 20260830183143 | 83 | 139 | 0.0 | 7.0 | 0.00 | 0.00 | 0.00 | 34 | 1016.0 |
| 20260830181653 | 83 | 136 | 4.0 | 9.0 | 0.00 | 0.00 | 0.00 | 34 | 1016.0 |
| 20260830180154 | 84 | 113 | 6.0 | 11.0 | 0.00 | 0.00 | 0.00 | 34 | 1015.8 |
| 20260830174654 | 84 | 130 | 6.0 | 11.0 | 0.00 | 0.00 | 0.00 | 34 | 1015.7 |
| 20260830173142 | 86 | 100 | 5.0 | 11.0 | 0.00 | 0.00 | 0.00 | 34 | 1015.6 |
| 20260830171653 | 87 | 106 | 6.0 | 14.0 | 0.00 | 0.00 | 0.00 | 34 | 1015.7 |
| 20260830170154 | 87 | 96 | 2.0 | 13.0 | 0.00 | 0.00 | 0.00 | 34 | 1015.6 |
| 20260830164655 | 88 | 107 | 7.0 | 12.0 | 0.00 | 0.00 | 0.00 | 34 | 1015.6 |
| 20260830163141 | 88 | 144 | 3.0 | 11.0 | 0.00 | 0.00 | 0.00 | 34 | 1015.7 |
| 20260830161657 | 89 | 144 | 2.0 | 11.0 | 0.00 | 0.00 | 0.00 | 33 | 1015.6 |
| 20260830160153 | 89 | 139 | 4.0 | 14.0 | 0.00 | 0.00 | 0.00 | 33 | 1015.5 |
| 20260830154655 | 89 | 124 | 3.0 | 16.0 | 0.00 | 0.00 | 0.00 | 33 | 1015.6 |
| 20260830153140 | 90 | 130 | 4.0 | 15.0 | 0.00 | 0.00 | 0.00 | 33 | 1015.7 |
| 20260830151653 | 90 | 99 | 5.0 | 12.0 | 0.00 | 0.00 | 0.00 | 34 | 1015.7 |
| 20260830144652 | 90 | 138 | 6.0 | 17.0 | 0.00 | 0.00 | 0.00 | 35 | 1015.8 |
| 20260830143139 | 90 | 119 | 7.0 | 18.0 | 0.00 | 0.00 | 0.00 | 36 | 1016.1 |
| 20260830141656 | 90 | 161 | 8.0 | 18.0 | 0.00 | 0.00 | 0.00 | 37 | 1016.2 |
| 20260830140157 | 91 | 112 | 7.0 | 17.0 | 0.00 | 0.00 | 0.00 | 36 | 1016.3 |
| 20260830134654 | 92 | 125 | 4.0 | 13.0 | 0.00 | 0.00 | 0.00 | 36 | 1016.3 |
| 20260830133143 | 91 | 148 | 9.0 | 17.0 | 0.00 | 0.00 | 0.00 | 36 | 1016.5 |
| 20260830131655 | 91 | 140 | 6.0 | 15.0 | 0.00 | 0.00 | 0.00 | 36 | 1016.6 |
| 20260830130157 | 92 | 161 | 2.0 | 14.0 | 0.00 | 0.00 | 0.00 | 36 | 1016.6 |
| 20260830124653 | 92 | 207 | 6.0 | 10.0 | 0.00 | 0.00 | 0.00 | 34 | 1016.8 |
| 20260830123143 | 91 | 103 | 5.0 | 13.0 | 0.00 | 0.00 | 0.00 | 32 | 1017.1 |
| 20260830121651 | 90 | 104 | 3.0 | 10.0 | 0.00 | 0.00 | 0.00 | 33 | 1017.3 |
| 20260830120157 | 90 | 131 | 2.0 | 10.0 | 0.00 | 0.00 | 0.00 | 34 | 1017.4 |
| 20260830114651 | 90 | 184 | 1.0 | 10.0 | 0.00 | 0.00 | 0.00 | 38 | 1017.5 |
| 20260830113142 | 88 | 196 | 1.0 | 12.0 | 0.00 | 0.00 | 0.00 | 40 | 1017.7 |
| 20260830111655 | 88 | 135 | 4.0 | 10.0 | 0.00 | 0.00 | 0.00 | 39 | 1017.9 |
| 20260830110154 | 88 | 111 | 4.0 | 10.0 | 0.00 | 0.00 | 0.00 | 39 | 1018.2 |
| 20260830104651 | 88 | 142 | 3.0 | 11.0 | 0.00 | 0.00 | 0.00 | 38 | 1018.3 |
| 20260830103139 | 87 | 161 | 4.0 | 9.0 | 0.00 | 0.00 | 0.00 | 35 | 1018.5 |
| 20260830101653 | 85 | 138 | 1.0 | 8.0 | 0.00 | 0.00 | 0.00 | 42 | 1018.6 |
| 20260830100156 | 82 | 176 | 3.0 | 7.0 | 0.00 | 0.00 | 0.00 | 50 | 1018.8 |
| 20260830094652 | 80 | 291 | 0.0 | 3.0 | 0.00 | 0.00 | 0.00 | 56 | 1018.9 |
| 20260830093143 | 79 | 250 | 0.0 | 3.0 | 0.00 | 0.00 | 0.00 | 57 | 1019.2 |
| 20260830091651 | 77 | 355 | 0.0 | 3.0 | 0.00 | 0.00 | 0.00 | 59 | 1019.3 |
| 20260830090200 | 76 | 13 | 2.0 | 4.0 | 0.00 | 0.00 | 0.00 | 61 | 1019.5 |
| 20260830084657 | 75 | 80 | 2.0 | 5.0 | 0.00 | 0.00 | 0.00 | 63 | 1019.6 |
| 20260830083143 | 73 | 62 | 1.0 | 5.0 | 0.00 | 0.00 | 0.00 | 66 | 1019.6 |
| 20260830081653 | 72 | 46 | 3.0 | 6.0 | 0.00 | 0.00 | 0.00 | 68 | 1019.7 |
| 20260830080151 | 71 | 37 | 1.0 | 6.0 | 0.00 | 0.00 | 0.00 | 71 | 1019.7 |
| 20260830074652 | 69 | 23 | 1.0 | 6.0 | 0.00 | 0.00 | 0.00 | 74 | 1019.8 |
| 20260830073145 | 68 | 355 | 2.0 | 7.0 | 0.00 | 0.00 | 0.00 | 77 | 1019.9 |
| 20260830071653 | 66 | 28 | 3.0 | 6.0 | 0.00 | 0.00 | 0.00 | 79 | 1019.9 |
| 20260830070155 | 65 | 30 | 2.0 | 5.0 | 0.00 | 0.00 | 0.00 | 81 | 1019.9 |
| 20260830064652 | 64 | 62 | 2.0 | 6.0 | 0.00 | 0.00 | 0.00 | 84 | 1019.9 |
| 20260830063143 | 63 | 57 | 3.0 | 7.0 | 0.00 | 0.00 | 0.00 | 87 | 1019.9 |
| 20260830061653 | 62 | 38 | 3.0 | 8.0 | 0.00 | 0.00 | 0.00 | 89 | 1019.8 |
| 20260830060151 | 61 | 53 | 2.0 | 5.0 | 0.00 | 0.00 | 0.00 | 90 | 1019.8 |
| 20260830054652 | 61 | 40 | 1.0 | 4.0 | 0.00 | 0.00 | 0.00 | 89 | 1019.7 |
| 20260830053145 | 61 | 57 | 0.0 | 4.0 | 0.00 | 0.00 | 0.00 | 89 | 1019.6 |
| 20260830051652 | 61 | 41 | 2.0 | 5.0 | 0.00 | 0.00 | 0.00 | 89 | 1019.5 |
| 20260830050153 | 61 | 47 | 1.0 | 3.0 | 0.00 | 0.00 | 0.00 | 89 | 1019.4 |
| 20260830044652 | 61 | 47 | 0.0 | 2.0 | 0.00 | 0.00 | 0.00 | 88 | 1019.3 |
| 20260830043138 | 62 | 47 | 0.0 | 1.0 | 0.00 | 0.00 | 0.00 | 88 | 1019.4 |